TimeEST,TemperatureF,Dew PointF,Humidity,Sea Level PressureIn,VisibilityMPH,Wind Direction,Wind SpeedMPH,Gust SpeedMPH,PrecipitationIn,Events,Conditions,WindDirDegrees,DateUTC
12:19 AM,33.8,21.2,60,30.15,10.0,NW,6.9,-,N/A,,Clear,310,2000-01-01 05:19:00
12:39 AM,33.8,19.4,56,30.15,10.0,WNW,4.6,-,N/A,,Clear,290,2000-01-01 05:39:00
12:59 AM,35.6,19.4,52,30.15,10.0,WNW,5.8,-,N/A,,Clear,290,2000-01-01 05:59:00
1:22 AM,35.6,15.8,44,30.15,10.0,West,8.1,-,N/A,,Clear,280,2000-01-01 06:22:00
1:40 AM,33.8,17.6,52,30.16,10.0,West,8.1,-,N/A,,Clear,270,2000-01-01 06:40:00
1:59 AM,33.8,17.6,52,30.16,10.0,West,6.9,-,N/A,,Mostly Cloudy,260,2000-01-01 06:59:00
2:19 AM,35.6,23.0,60,30.16,10.0,SW,8.1,-,N/A,,Mostly Cloudy,230,2000-01-01 07:19:00
2:42 AM,35.6,23.0,60,30.17,10.0,WSW,9.2,-,N/A,,Clear,240,2000-01-01 07:42:00
3:00 AM,37.4,24.8,60,30.17,10.0,WSW,9.2,-,N/A,,Clear,250,2000-01-01 08:00:00
3:19 AM,37.4,24.8,60,30.17,10.0,WSW,9.2,-,N/A,,Clear,250,2000-01-01 08:19:00
3:39 AM,37.4,24.8,60,30.17,10.0,SW,9.2,-,N/A,,Clear,230,2000-01-01 08:39:00
3:59 AM,39.2,26.6,61,30.16,10.0,SW,8.1,-,N/A,,Clear,230,2000-01-01 08:59:00
4:19 AM,39.2,24.8,56,30.16,10.0,SW,9.2,-,N/A,,Clear,230,2000-01-01 09:19:00
4:39 AM,41.0,26.6,57,30.16,10.0,SW,11.5,17.3,N/A,,Clear,220,2000-01-01 09:39:00
4:59 AM,41.0,28.4,61,30.16,10.0,SW,9.2,16.1,N/A,,Clear,230,2000-01-01 09:59:00
5:19 AM,41.0,26.6,57,30.16,10.0,SW,10.4,17.3,N/A,,Clear,230,2000-01-01 10:19:00
5:39 AM,41.0,28.4,61,30.17,10.0,SW,11.5,16.1,N/A,,Clear,230,2000-01-01 10:39:00
5:59 AM,41.0,30.2,65,30.17,10.0,SW,9.2,-,N/A,,Scattered Clouds,230,2000-01-01 10:59:00
6:19 AM,41.0,30.2,65,30.17,10.0,SW,9.2,-,N/A,,Mostly Cloudy,220,2000-01-01 11:19:00
6:42 AM,42.8,30.2,61,30.17,10.0,SW,13.8,19.6,N/A,,Overcast,230,2000-01-01 11:42:00
6:58 AM,42.8,-9999,N/A,30.18,10.0,SW,10.4,-,N/A,,Overcast,230,2000-01-01 11:58:00
7:20 AM,42.8,32.0,66,30.19,10.0,SW,12.7,-,N/A,,Overcast,230,2000-01-01 12:20:00
7:38 AM,41.0,32.0,70,30.19,10.0,WSW,11.5,-,N/A,,Mostly Cloudy,240,2000-01-01 12:38:00
7:58 AM,41.0,32.0,70,30.20,10.0,SW,9.2,-,N/A,,Mostly Cloudy,230,2000-01-01 12:58:00
8:18 AM,42.8,33.8,70,30.20,10.0,WSW,10.4,-,N/A,,Overcast,240,2000-01-01 13:18:00
8:38 AM,44.6,35.6,71,30.20,10.0,WSW,9.2,-,N/A,,Overcast,240,2000-01-01 13:38:00
8:58 AM,44.6,35.6,71,30.20,10.0,WSW,9.2,-,N/A,,Overcast,250,2000-01-01 13:58:00
9:19 AM,44.6,35.6,71,30.21,10.0,WSW,9.2,-,N/A,,Overcast,240,2000-01-01 14:19:00
9:39 AM,44.6,35.6,71,30.22,10.0,WSW,10.4,-,N/A,,Overcast,240,2000-01-01 14:39:00
9:58 AM,44.6,37.4,76,30.23,10.0,WSW,10.4,-,N/A,,Overcast,240,2000-01-01 14:58:00
10:18 AM,44.6,37.4,76,30.23,10.0,SW,10.4,-,N/A,,Overcast,230,2000-01-01 15:18:00
10:41 AM,46.4,37.4,71,30.22,10.0,SW,9.2,-,N/A,,Overcast,230,2000-01-01 15:41:00
10:58 AM,46.4,39.2,76,30.23,10.0,WSW,12.7,-,N/A,,Overcast,240,2000-01-01 15:58:00
11:19 AM,48.2,39.2,71,30.22,10.0,SW,9.2,-,N/A,,Overcast,220,2000-01-01 16:19:00
11:38 AM,46.4,39.2,76,30.21,10.0,SW,9.2,-,N/A,,Overcast,230,2000-01-01 16:38:00
11:58 AM,46.4,41.0,81,30.20,10.0,SW,8.1,-,N/A,,Overcast,230,2000-01-01 16:58:00
12:19 PM,48.2,42.8,82,30.19,10.0,WSW,9.2,-,N/A,,Overcast,240,2000-01-01 17:19:00
12:39 PM,48.2,41.0,76,30.19,10.0,SW,10.4,-,N/A,,Overcast,230,2000-01-01 17:39:00
12:59 PM,48.2,39.2,71,30.18,10.0,WSW,10.4,-,N/A,,Overcast,240,2000-01-01 17:59:00
1:19 PM,48.2,39.2,71,30.18,10.0,WSW,10.4,-,N/A,,Overcast,250,2000-01-01 18:19:00
1:40 PM,46.4,39.2,76,30.18,10.0,SW,9.2,-,N/A,,Overcast,230,2000-01-01 18:40:00
1:59 PM,46.4,39.2,76,30.18,10.0,WSW,10.4,-,N/A,,Mostly Cloudy,250,2000-01-01 18:59:00
2:19 PM,48.2,41.0,76,30.18,10.0,West,10.4,-,N/A,,Scattered Clouds,260,2000-01-01 19:19:00
2:39 PM,48.2,42.8,82,30.18,10.0,West,9.2,16.1,N/A,,Mostly Cloudy,260,2000-01-01 19:39:00
2:59 PM,46.4,39.2,76,30.18,10.0,WSW,10.4,-,N/A,,Scattered Clouds,250,2000-01-01 19:59:00
3:19 PM,46.4,39.2,76,30.18,10.0,West,6.9,-,N/A,,Mostly Cloudy,260,2000-01-01 20:19:00
3:39 PM,46.4,39.2,76,30.18,10.0,WSW,8.1,-,N/A,,Overcast,240,2000-01-01 20:39:00
3:59 PM,46.4,39.2,76,30.19,10.0,WSW,6.9,-,N/A,,Mostly Cloudy,250,2000-01-01 20:59:00
4:19 PM,46.4,39.2,76,30.19,10.0,SW,6.9,-,N/A,,Mostly Cloudy,220,2000-01-01 21:19:00
4:41 PM,46.4,39.2,76,30.20,10.0,SSW,4.6,-,N/A,,Overcast,210,2000-01-01 21:41:00
4:59 PM,46.4,39.2,76,30.20,10.0,SW,4.6,-,N/A,,Overcast,220,2000-01-01 21:59:00
5:19 PM,46.4,41.0,81,30.20,10.0,SSW,8.1,-,N/A,,Overcast,200,2000-01-01 22:19:00
5:39 PM,46.4,39.2,76,30.20,10.0,SSW,8.1,-,N/A,,Overcast,210,2000-01-01 22:39:00
5:59 PM,44.6,41.0,87,30.20,10.0,SSW,8.1,-,N/A,,Overcast,200,2000-01-01 22:59:00
6:18 PM,46.4,41.0,81,30.21,10.0,SW,8.1,-,N/A,,Overcast,220,2000-01-01 23:18:00
6:38 PM,46.4,42.8,87,30.21,10.0,SSW,8.1,-,N/A,,Overcast,210,2000-01-01 23:38:00
7:00 PM,46.4,41.0,81,30.21,10.0,South,5.8,-,N/A,,Mostly Cloudy,190,2000-01-02 00:00:00
7:19 PM,46.4,42.8,87,30.21,10.0,SW,8.1,-,N/A,,Mostly Cloudy,220,2000-01-02 00:19:00
7:38 PM,46.4,42.8,87,30.22,10.0,SW,5.8,-,N/A,,Overcast,220,2000-01-02 00:38:00
7:58 PM,46.4,42.8,87,30.22,7.0,SW,4.6,-,N/A,,Overcast,230,2000-01-02 00:58:00
8:18 PM,44.6,39.2,81,30.21,10.0,SSW,5.8,-,N/A,,Overcast,200,2000-01-02 01:18:00
8:38 PM,44.6,41.0,87,30.21,10.0,South,3.5,-,N/A,,Overcast,190,2000-01-02 01:38:00
8:58 PM,-9999,-9999,N/A,30.21,10.0,SW,6.9,-,N/A,,Overcast,230,2000-01-02 01:58:00
9:18 PM,46.4,41.0,81,30.21,10.0,SW,6.9,-,N/A,,Overcast,230,2000-01-02 02:18:00
9:40 PM,46.4,42.8,87,30.21,10.0,SSW,5.8,-,N/A,,Mostly Cloudy,210,2000-01-02 02:40:00
9:58 PM,44.6,42.8,93,30.21,10.0,SSW,6.9,-,N/A,,Mostly Cloudy,200,2000-01-02 02:58:00
10:18 PM,42.8,41.0,93,30.21,10.0,SSW,5.8,-,N/A,,Mostly Cloudy,210,2000-01-02 03:18:00
10:38 PM,42.8,41.0,93,30.21,7.0,South,6.9,-,N/A,,Mostly Cloudy,190,2000-01-02 03:38:00
10:58 PM,42.8,41.0,93,30.21,3.0,South,9.2,-,N/A,,Mostly Cloudy,190,2000-01-02 03:58:00
11:18 PM,41.0,41.0,100,30.21,1.0,South,10.4,-,N/A,,Overcast,190,2000-01-02 04:18:00
11:38 PM,41.0,41.0,100,30.20,0.2,South,12.7,-,N/A,,Overcast,180,2000-01-02 04:38:00
11:58 PM,42.8,42.8,100,30.20,0.2,South,9.2,-,N/A,,Overcast,190,2000-01-02 04:58:00